UAL2121 KSEA-KSFO

Flight info

Callsign UAL2121
Flight time 1h 35m
Altitude 37000
Route HAROB6 ERAVE Q1 ETCHY MLBEC BDEGA4
Aircraft A320/M-SDE3FGHIRWY/LB1

Departure

Time 2026-05-06 02:29
Airport Seattle–Tacoma International Airport (KSEA)

Arrival

Time 2026-05-06 04:05
Airport San Francisco International Airport (KSFO)
Time Latitude Longitude Altitude Speed Heading
2026-05-06 02:14 47.44042 -122.30418 432 ft 0 kts 43°
2026-05-06 02:19 47.44036 -122.30426 422 ft 2 kts 32°
2026-05-06 02:20 47.43991 -122.30399 428 ft 5 kts 277°
2026-05-06 02:20 47.43990 -122.30394 429 ft 0 kts 277°
2026-05-06 02:22 47.43983 -122.30438 430 ft 16 kts 250°
2026-05-06 02:22 47.44060 -122.30609 424 ft 28 kts 336°
2026-05-06 02:23 47.44280 -122.30627 425 ft 33 kts 359°
2026-05-06 02:23 47.44519 -122.30625 428 ft 35 kts 360°
2026-05-06 02:23 47.44769 -122.30622 428 ft 37 kts
2026-05-06 02:23 47.45029 -122.30621 422 ft 38 kts
2026-05-06 02:24 47.45297 -122.30619 421 ft 39 kts
2026-05-06 02:24 47.45573 -122.30618 424 ft 40 kts
2026-05-06 02:24 47.45855 -122.30614 423 ft 38 kts
2026-05-06 02:24 47.46022 -122.30613 424 ft 36 kts 360°
2026-05-06 02:25 47.46293 -122.30611 423 ft 19 kts
2026-05-06 02:25 47.46351 -122.30623 422 ft 0 kts 334°
2026-05-06 02:28 47.46352 -122.30623 422 ft 1 kts 334°
2026-05-06 02:28 47.46370 -122.30662 427 ft 9 kts 292°
2026-05-06 02:28 47.46331 -122.30771 421 ft 17 kts 198°
2026-05-06 02:29 47.46116 -122.30780 422 ft 61 kts 180°
2026-05-06 02:29 47.45465 -122.30784 421 ft 122 kts 180°
2026-05-06 02:29 47.44468 -122.30801 600 ft 152 kts 180°
2026-05-06 02:29 47.43408 -122.30795 1226 ft 153 kts 180°
2026-05-06 02:30 47.42337 -122.30809 1854 ft 155 kts 181°
2026-05-06 02:30 47.41362 -122.30830 2401 ft 151 kts 182°
2026-05-06 02:30 47.40308 -122.30868 2794 ft 159 kts 181°
2026-05-06 02:30 47.39133 -122.30896 2978 ft 182 kts 182°
2026-05-06 02:31 47.37786 -122.30937 3224 ft 205 kts 182°
2026-05-06 02:31 47.36250 -122.30992 3494 ft 231 kts 182°
2026-05-06 02:31 47.34588 -122.31057 3871 ft 254 kts 183°
2026-05-06 02:31 47.32833 -122.31723 4390 ft 270 kts 214°
2026-05-06 02:32 47.31600 -122.33776 5130 ft 273 kts 248°
2026-05-06 02:32 47.31037 -122.36455 5925 ft 276 kts 261°
2026-05-06 02:32 47.30754 -122.39268 6773 ft 279 kts 266°
2026-05-06 02:32 47.30558 -122.42125 7603 ft 282 kts 266°
2026-05-06 02:33 47.30552 -122.45015 8412 ft 283 kts 279°
2026-05-06 02:33 47.30704 -122.46973 8981 ft 286 kts 277°
2026-05-06 02:34 47.31083 -122.57010 10894 ft 320 kts 274°
2026-05-06 02:34 47.31168 -122.60392 11151 ft 338 kts 274°
2026-05-06 02:34 47.31252 -122.63895 11736 ft 345 kts 274°
2026-05-06 02:34 47.31336 -122.67443 12395 ft 349 kts 274°
2026-05-06 02:35 47.31425 -122.71033 13077 ft 352 kts 274°
2026-05-06 02:35 47.31484 -122.74659 13745 ft 357 kts 270°
2026-05-06 02:35 47.31139 -122.78287 14334 ft 363 kts 258°
2026-05-06 02:35 47.30301 -122.81849 14892 ft 369 kts 250°
2026-05-06 02:36 47.29353 -122.85374 15483 ft 371 kts 251°
2026-05-06 02:36 47.28400 -122.88922 16055 ft 374 kts 251°
2026-05-06 02:36 47.27439 -122.92501 16627 ft 377 kts 251°
2026-05-06 02:36 47.26470 -122.96117 17202 ft 381 kts 251°
2026-05-06 02:37 47.25473 -122.99743 17774 ft 385 kts 247°
2026-05-06 02:37 47.24114 -123.03168 18341 ft 392 kts 236°
2026-05-06 02:37 47.22290 -123.06189 18858 ft 398 kts 224°
2026-05-06 02:37 47.20091 -123.08711 19386 ft 403 kts 218°
2026-05-06 02:38 47.17815 -123.11156 19927 ft 407 kts 218°
2026-05-06 02:38 47.15528 -123.13631 20469 ft 409 kts 218°
2026-05-06 02:38 47.13233 -123.16122 21043 ft 411 kts 218°
2026-05-06 02:38 47.10924 -123.18630 21570 ft 414 kts 218°
2026-05-06 02:39 47.08598 -123.21158 22089 ft 418 kts 218°
2026-05-06 02:39 47.06261 -123.23696 22577 ft 421 kts 218°
2026-05-06 02:39 47.03904 -123.26252 23049 ft 424 kts 218°
2026-05-06 02:39 47.01509 -123.28840 23527 ft 427 kts 218°
2026-05-06 02:40 46.99109 -123.31426 23933 ft 430 kts 218°
2026-05-06 02:40 46.96689 -123.34025 24317 ft 433 kts 218°
2026-05-06 02:40 46.94200 -123.36534 24677 ft 437 kts 212°
2026-05-06 02:40 46.91444 -123.38449 25059 ft 442 kts 201°
2026-05-06 02:41 46.88467 -123.39620 25440 ft 446 kts 190°
2026-05-06 02:41 46.85363 -123.39996 25791 ft 450 kts 180°
2026-05-06 02:41 46.82223 -123.39892 26135 ft 453 kts 179°
2026-05-06 02:41 46.79065 -123.39787 26477 ft 455 kts 179°
2026-05-06 02:42 46.75890 -123.39687 26833 ft 458 kts 179°
2026-05-06 02:42 46.72694 -123.39591 27169 ft 461 kts 179°
2026-05-06 02:42 46.69477 -123.39495 27508 ft 464 kts 179°
2026-05-06 02:42 46.66242 -123.39399 27819 ft 467 kts 179°
2026-05-06 02:43 46.62985 -123.39299 28149 ft 470 kts 179°
2026-05-06 02:43 46.59710 -123.39196 28504 ft 471 kts 179°
2026-05-06 02:43 46.56426 -123.39093 28851 ft 473 kts 179°
2026-05-06 02:43 46.53126 -123.38986 29175 ft 476 kts 179°
2026-05-06 02:44 46.49802 -123.38877 29495 ft 478 kts 179°
2026-05-06 02:44 46.46463 -123.38770 29834 ft 480 kts 179°
2026-05-06 02:44 46.43127 -123.38665 30241 ft 480 kts 179°
2026-05-06 02:44 46.39783 -123.38561 30618 ft 480 kts 179°
2026-05-06 02:45 46.36450 -123.38458 31002 ft 479 kts 179°
2026-05-06 02:45 46.33115 -123.38360 31386 ft 479 kts 179°
2026-05-06 02:45 46.29789 -123.38263 31773 ft 478 kts 179°
2026-05-06 02:45 46.26468 -123.38163 32176 ft 477 kts 179°
2026-05-06 02:46 46.23151 -123.38060 32575 ft 476 kts 179°
2026-05-06 02:46 46.19838 -123.37960 32959 ft 477 kts 179°
2026-05-06 02:46 46.16521 -123.37860 33326 ft 477 kts 179°
2026-05-06 02:46 46.13202 -123.37761 33708 ft 477 kts 179°
2026-05-06 02:47 46.09890 -123.37660 34109 ft 476 kts 179°
2026-05-06 02:47 46.06577 -123.37556 34443 ft 476 kts 179°
2026-05-06 02:47 46.03271 -123.37451 34759 ft 475 kts 179°
2026-05-06 02:47 45.99970 -123.37347 35085 ft 474 kts 179°
2026-05-06 02:48 45.96669 -123.37244 35402 ft 474 kts 179°
2026-05-06 02:48 45.93381 -123.37143 35713 ft 473 kts 179°
2026-05-06 02:48 45.90092 -123.37045 36017 ft 472 kts 179°
2026-05-06 02:48 45.86814 -123.36947 36343 ft 470 kts 180°
2026-05-06 02:49 45.83556 -123.36848 36680 ft 468 kts 180°
2026-05-06 02:49 45.80303 -123.36748 36971 ft 467 kts 180°
2026-05-06 02:49 45.77052 -123.36649 37063 ft 469 kts 180°
2026-05-06 02:50 45.70457 -123.36444 37075 ft 477 kts 179°
2026-05-06 02:50 45.63804 -123.36237 37060 ft 479 kts 179°
2026-05-06 02:51 45.57138 -123.36038 37059 ft 479 kts 179°
2026-05-06 02:51 45.50472 -123.35848 37047 ft 479 kts 179°
2026-05-06 02:52 45.43809 -123.35652 37064 ft 479 kts 179°
2026-05-06 02:52 45.37146 -123.35449 37066 ft 479 kts 179°
2026-05-06 02:53 45.30481 -123.35250 37065 ft 479 kts 179°
2026-05-06 02:53 45.23813 -123.35049 37065 ft 480 kts 179°
2026-05-06 02:54 45.17129 -123.34857 37056 ft 481 kts 179°
2026-05-06 02:54 45.10442 -123.34668 37059 ft 480 kts 179°
2026-05-06 02:55 45.03758 -123.34467 37076 ft 481 kts 179°
2026-05-06 02:55 44.97072 -123.34260 37075 ft 481 kts 179°
2026-05-06 02:56 44.90376 -123.34061 37071 ft 481 kts 179°
2026-05-06 02:56 44.83681 -123.33867 37085 ft 482 kts 179°
2026-05-06 02:57 44.76979 -123.33674 37069 ft 482 kts 179°
2026-05-06 02:57 44.70275 -123.33484 37087 ft 482 kts 179°
2026-05-06 02:58 44.63574 -123.33286 37089 ft 482 kts 179°
2026-05-06 02:58 44.56917 -123.33099 37091 ft 482 kts 179°
2026-05-06 02:59 44.50160 -123.32906 37086 ft 482 kts 179°
2026-05-06 02:59 44.43492 -123.32667 37074 ft 482 kts 178°
2026-05-06 03:00 44.36744 -123.32376 37093 ft 482 kts 178°
2026-05-06 03:00 44.30033 -123.32097 37089 ft 482 kts 178°
2026-05-06 03:01 44.23323 -123.31825 37081 ft 483 kts 178°
2026-05-06 03:01 44.16609 -123.31547 37089 ft 483 kts 178°
2026-05-06 03:02 44.09935 -123.31273 37073 ft 483 kts 178°
2026-05-06 03:02 44.03217 -123.31007 37083 ft 483 kts 178°
2026-05-06 03:03 43.96501 -123.30745 37083 ft 483 kts 178°
2026-05-06 03:03 43.89784 -123.30490 37082 ft 483 kts 178°
2026-05-06 03:04 43.83066 -123.30224 37078 ft 483 kts 178°
2026-05-06 03:04 43.76342 -123.29955 37067 ft 484 kts 178°
2026-05-06 03:05 43.69623 -123.29686 37065 ft 483 kts 178°
2026-05-06 03:05 43.62908 -123.29424 37072 ft 482 kts 178°
2026-05-06 03:06 43.56200 -123.29169 37069 ft 482 kts 178°
2026-05-06 03:06 43.49492 -123.28912 37064 ft 482 kts 178°
2026-05-06 03:07 43.43874 -123.28697 37054 ft 482 kts 178°
2026-05-06 03:07 43.37164 -123.28437 37046 ft 482 kts 178°
2026-05-06 03:08 43.30460 -123.28177 37059 ft 482 kts 177°
2026-05-06 03:08 43.23754 -123.27907 37054 ft 482 kts 177°
2026-05-06 03:09 43.17049 -123.27652 37050 ft 482 kts 178°
2026-05-06 03:09 43.10340 -123.27396 37049 ft 482 kts 177°
2026-05-06 03:10 43.03628 -123.27135 37045 ft 482 kts 177°
2026-05-06 03:10 42.96918 -123.26875 37044 ft 482 kts 177°
2026-05-06 03:11 42.90210 -123.26622 37040 ft 482 kts 177°
2026-05-06 03:11 42.83499 -123.26365 37038 ft 482 kts 177°
2026-05-06 03:12 42.76787 -123.26107 37028 ft 483 kts 177°
2026-05-06 03:12 42.70075 -123.25850 37027 ft 483 kts 177°
2026-05-06 03:13 42.63357 -123.25599 37032 ft 483 kts 177°
2026-05-06 03:13 42.56627 -123.25348 37017 ft 484 kts 177°
2026-05-06 03:14 42.49895 -123.25093 37007 ft 484 kts 177°
2026-05-06 03:14 42.43164 -123.24841 37011 ft 484 kts 177°
2026-05-06 03:15 42.36472 -123.24585 37003 ft 484 kts 177°
2026-05-06 03:15 42.29697 -123.24344 37007 ft 484 kts 177°
2026-05-06 03:16 42.23013 -123.24109 37020 ft 484 kts 177°
2026-05-06 03:16 42.16276 -123.23860 37014 ft 484 kts 177°
2026-05-06 03:17 42.09546 -123.23604 37007 ft 484 kts 177°
2026-05-06 03:17 42.02811 -123.23356 37030 ft 484 kts 177°
2026-05-06 03:18 41.96090 -123.23114 37028 ft 483 kts 177°
2026-05-06 03:18 41.89373 -123.22867 37038 ft 483 kts 177°
2026-05-06 03:19 41.82655 -123.22629 37047 ft 483 kts 177°
2026-05-06 03:19 41.75937 -123.22380 37035 ft 482 kts 177°
2026-05-06 03:20 41.65874 -123.22011 37039 ft 482 kts 177°
2026-05-06 03:20 41.59166 -123.21769 37049 ft 482 kts 177°
2026-05-06 03:21 41.52464 -123.21535 37043 ft 482 kts 177°
2026-05-06 03:21 41.45758 -123.21305 37053 ft 482 kts 177°
2026-05-06 03:22 41.39056 -123.21079 37065 ft 482 kts 177°
2026-05-06 03:22 41.32348 -123.20851 37068 ft 482 kts 177°
2026-05-06 03:23 41.25648 -123.20665 37092 ft 482 kts 177°
2026-05-06 03:23 41.18940 -123.20516 37082 ft 482 kts 178°
2026-05-06 03:24 41.12235 -123.20361 37079 ft 482 kts 177°
2026-05-06 03:24 41.05530 -123.20190 37077 ft 482 kts 177°
2026-05-06 03:25 40.98838 -123.20006 37062 ft 482 kts 177°
2026-05-06 03:25 40.92120 -123.19828 37065 ft 482 kts 177°
2026-05-06 03:26 40.85412 -123.19675 37068 ft 482 kts 177°
2026-05-06 03:26 40.78706 -123.19512 37049 ft 482 kts 177°
2026-05-06 03:27 40.71998 -123.19335 37050 ft 482 kts 177°
2026-05-06 03:27 40.65292 -123.19160 37068 ft 482 kts 177°
2026-05-06 03:28 40.58589 -123.18997 37047 ft 482 kts 177°
2026-05-06 03:28 40.51880 -123.18835 37047 ft 482 kts 177°
2026-05-06 03:29 40.45173 -123.18672 37055 ft 482 kts 177°
2026-05-06 03:29 40.38464 -123.18507 37059 ft 482 kts 177°
2026-05-06 03:30 40.31754 -123.18339 37058 ft 482 kts 177°
2026-05-06 03:30 40.25044 -123.18166 37069 ft 482 kts 176°
2026-05-06 03:31 40.18335 -123.18000 37054 ft 482 kts 177°
2026-05-06 03:31 40.11628 -123.17851 37069 ft 482 kts 177°
2026-05-06 03:32 40.04916 -123.17687 37062 ft 482 kts 176°
2026-05-06 03:32 39.98202 -123.17512 37055 ft 483 kts 176°
2026-05-06 03:33 39.91492 -123.17302 37060 ft 482 kts 176°
2026-05-06 03:33 39.84783 -123.16984 37060 ft 482 kts 175°
2026-05-06 03:34 39.78089 -123.16625 37054 ft 482 kts 175°
2026-05-06 03:34 39.71371 -123.16300 37054 ft 482 kts 175°
2026-05-06 03:35 39.64658 -123.16012 37060 ft 483 kts 175°
2026-05-06 03:35 39.57944 -123.15705 37065 ft 483 kts 175°
2026-05-06 03:36 39.51233 -123.15393 37057 ft 483 kts 175°
2026-05-06 03:36 39.44511 -123.15082 37055 ft 483 kts 175°
2026-05-06 03:37 39.37787 -123.14769 37054 ft 484 kts 175°
2026-05-06 03:37 39.31066 -123.14461 37079 ft 484 kts 175°
2026-05-06 03:38 39.24335 -123.14158 37082 ft 484 kts 175°
2026-05-06 03:38 39.17606 -123.13864 37089 ft 484 kts 175°
2026-05-06 03:39 39.10939 -123.13027 37086 ft 478 kts 162°
2026-05-06 03:39 39.04829 -123.09957 37080 ft 468 kts 145°
2026-05-06 03:40 38.99352 -123.05508 37081 ft 466 kts 142°
2026-05-06 03:40 38.93879 -123.01059 37078 ft 465 kts 143°
2026-05-06 03:41 38.88314 -122.96792 37066 ft 469 kts 151°
2026-05-06 03:41 38.85264 -122.95274 36849 ft 472 kts 159°
2026-05-06 03:41 38.82072 -122.94219 35633 ft 476 kts 163°
2026-05-06 03:42 38.78832 -122.93256 34433 ft 479 kts 164°
2026-05-06 03:42 38.75584 -122.92316 33321 ft 477 kts 164°
2026-05-06 03:42 38.72362 -122.91392 32304 ft 472 kts 164°
2026-05-06 03:42 38.69178 -122.90475 31387 ft 466 kts 165°
2026-05-06 03:43 38.66038 -122.89562 30512 ft 460 kts 164°
2026-05-06 03:43 38.62935 -122.88652 29553 ft 454 kts 164°
2026-05-06 03:43 38.59877 -122.87746 28573 ft 448 kts 164°
2026-05-06 03:43 38.56860 -122.86850 27637 ft 443 kts 164°
2026-05-06 03:44 38.53877 -122.85966 26735 ft 437 kts 164°
2026-05-06 03:44 38.50933 -122.85099 25970 ft 431 kts 164°
2026-05-06 03:44 38.48027 -122.84245 25468 ft 427 kts 164°
2026-05-06 03:44 38.45140 -122.83396 24942 ft 424 kts 164°
2026-05-06 03:45 38.42277 -122.82553 24432 ft 424 kts 164°
2026-05-06 03:45 38.39391 -122.81702 23944 ft 423 kts 164°
2026-05-06 03:45 38.36542 -122.80866 23340 ft 419 kts 164°
2026-05-06 03:45 38.33721 -122.80041 22836 ft 413 kts 164°
2026-05-06 03:46 38.30935 -122.79228 22338 ft 409 kts 164°
2026-05-06 03:46 38.28180 -122.78429 21840 ft 404 kts 164°
2026-05-06 03:46 38.25453 -122.77636 21346 ft 400 kts 164°
2026-05-06 03:46 38.23681 -122.77118 21027 ft 398 kts 164°
2026-05-06 03:47 38.20078 -122.76060 20378 ft 392 kts 164°
2026-05-06 03:47 38.18329 -122.75550 20058 ft 390 kts 165°
2026-05-06 03:47 38.15688 -122.74781 19585 ft 387 kts 165°
2026-05-06 03:47 38.13077 -122.74024 19114 ft 383 kts 165°
2026-05-06 03:48 38.10496 -122.73275 18607 ft 379 kts 165°
2026-05-06 03:48 38.07941 -122.72533 18049 ft 374 kts 165°
2026-05-06 03:48 38.05409 -122.71796 17586 ft 372 kts 165°
2026-05-06 03:48 38.02895 -122.71068 17128 ft 370 kts 165°
2026-05-06 03:49 38.00395 -122.70342 16678 ft 368 kts 165°
2026-05-06 03:49 37.97905 -122.69623 16228 ft 366 kts 165°
2026-05-06 03:49 37.95433 -122.68912 15764 ft 363 kts 165°
2026-05-06 03:49 37.92977 -122.68204 15328 ft 361 kts 164°
2026-05-06 03:50 37.90615 -122.67216 14888 ft 355 kts 153°
2026-05-06 03:50 37.88480 -122.65699 14454 ft 350 kts 141°
2026-05-06 03:50 37.86596 -122.63782 14023 ft 346 kts 136°
2026-05-06 03:50 37.84762 -122.61825 13583 ft 344 kts 136°
2026-05-06 03:51 37.82943 -122.59891 13176 ft 340 kts 136°
2026-05-06 03:51 37.81131 -122.57969 12624 ft 341 kts 137°
2026-05-06 03:51 37.79333 -122.56069 12124 ft 332 kts 137°
2026-05-06 03:51 37.77567 -122.54204 11375 ft 329 kts 137°
2026-05-06 03:52 37.75853 -122.52402 11104 ft 310 kts 137°
2026-05-06 03:52 37.74232 -122.50696 10995 ft 303 kts 137°
2026-05-06 03:52 37.72615 -122.48989 11011 ft 301 kts 137°
2026-05-06 03:52 37.71012 -122.47287 11008 ft 301 kts 136°
2026-05-06 03:53 37.69412 -122.45577 11009 ft 301 kts 136°
2026-05-06 03:53 37.67809 -122.43869 11014 ft 301 kts 136°
2026-05-06 03:53 37.66212 -122.42169 11009 ft 301 kts 137°
2026-05-06 03:53 37.64606 -122.40460 11013 ft 301 kts 137°
2026-05-06 03:54 37.63010 -122.38762 11011 ft 303 kts 137°
2026-05-06 03:54 37.61184 -122.37238 10875 ft 319 kts 150°
2026-05-06 03:54 37.59180 -122.36021 10222 ft 316 kts 153°
2026-05-06 03:54 37.57234 -122.34897 9877 ft 302 kts 153°
2026-05-06 03:55 37.55339 -122.33813 9305 ft 297 kts 153°
2026-05-06 03:55 37.53468 -122.32745 8740 ft 294 kts 153°
2026-05-06 03:55 37.51626 -122.31680 8150 ft 291 kts 153°
2026-05-06 03:55 37.49789 -122.30609 7565 ft 289 kts 153°
2026-05-06 03:56 37.47984 -122.29546 6996 ft 287 kts 153°
2026-05-06 03:56 37.46256 -122.28321 6426 ft 281 kts 137°
2026-05-06 03:56 37.45087 -122.26412 5825 ft 274 kts 116°
2026-05-06 03:56 37.44247 -122.24270 5275 ft 271 kts 113°
2026-05-06 03:57 37.43476 -122.22121 4719 ft 267 kts 112°
2026-05-06 03:57 37.43109 -122.19870 4176 ft 261 kts 84°
2026-05-06 03:57 37.43661 -122.17816 4025 ft 239 kts 53°
2026-05-06 03:57 37.44688 -122.16334 4019 ft 212 kts 44°
2026-05-06 03:58 37.45685 -122.15088 4055 ft 197 kts 43°
2026-05-06 03:58 37.46660 -122.13890 4031 ft 194 kts 43°
2026-05-06 03:58 37.47628 -122.12705 4022 ft 194 kts 43°
2026-05-06 03:58 37.48657 -122.11640 4024 ft 193 kts 22°
2026-05-06 03:59 37.49963 -122.11443 4031 ft 190 kts 347°
2026-05-06 03:59 37.51104 -122.12195 3947 ft 184 kts 313°
2026-05-06 03:59 37.51788 -122.13545 3774 ft 183 kts 296°
2026-05-06 03:59 37.52381 -122.14964 3554 ft 183 kts 296°
2026-05-06 04:00 37.52977 -122.16382 3336 ft 183 kts 295°
2026-05-06 04:00 37.53572 -122.17794 3106 ft 182 kts 296°
2026-05-06 04:00 37.54165 -122.19197 2868 ft 181 kts 296°
2026-05-06 04:00 37.54750 -122.20584 2639 ft 178 kts 296°
2026-05-06 04:01 37.55331 -122.21960 2414 ft 177 kts 296°
2026-05-06 04:01 37.55909 -122.23330 2186 ft 177 kts 296°
2026-05-06 04:01 37.56487 -122.24701 1956 ft 177 kts 296°
2026-05-06 04:01 37.57050 -122.26037 1727 ft 165 kts 296°
2026-05-06 04:02 37.57551 -122.27224 1521 ft 144 kts 296°
2026-05-06 04:02 37.58009 -122.28312 1350 ft 137 kts 296°
2026-05-06 04:02 37.58450 -122.29359 1166 ft 135 kts 296°
2026-05-06 04:02 37.58890 -122.30407 995 ft 135 kts 296°
2026-05-06 04:03 37.59328 -122.31447 818 ft 133 kts 296°
2026-05-06 04:03 37.59760 -122.32475 645 ft 132 kts 295°
2026-05-06 04:03 37.60191 -122.33501 473 ft 133 kts 295°
2026-05-06 04:03 37.60621 -122.34518 306 ft 133 kts 295°
2026-05-06 04:04 37.61051 -122.35549 144 ft 133 kts 295°
2026-05-06 04:04 37.61466 -122.36540 21 ft 117 kts 297°
2026-05-06 04:04 37.61773 -122.37271 21 ft 67 kts 298°
2026-05-06 04:04 37.61950 -122.37694 21 ft 52 kts 298°
2026-05-06 04:05 37.61991 -122.37890 21 ft 17 kts 247°
2026-05-06 04:05 37.61930 -122.37984 21 ft 15 kts 229°
2026-05-06 04:05 37.61915 -122.38081 21 ft 0 kts 288°
2026-05-06 04:06 37.61917 -122.38087 21 ft 0 kts 294°
2026-05-06 04:06 37.61918 -122.38091 21 ft 0 kts 295°
2026-05-06 04:06 37.61940 -122.38142 21 ft 15 kts 299°
2026-05-06 04:06 37.62008 -122.38301 21 ft 23 kts 297°
2026-05-06 04:07 37.62085 -122.38488 22 ft 25 kts 297°
2026-05-06 04:07 37.62172 -122.38691 23 ft 27 kts 297°
2026-05-06 04:07 37.62263 -122.38911 21 ft 29 kts 298°
2026-05-06 04:07 37.62314 -122.39085 21 ft 20 kts 258°
2026-05-06 04:08 37.62220 -122.39214 22 ft 22 kts 209°
2026-05-06 04:08 37.62091 -122.39285 21 ft 16 kts 171°
2026-05-06 04:08 37.62023 -122.39170 22 ft 18 kts 117°
2026-05-06 04:08 37.61959 -122.39021 21 ft 18 kts 108°
2026-05-06 04:09 37.62014 -122.38945 21 ft 6 kts 27°
2026-05-06 04:09 37.62030 -122.38934 22 ft 0 kts 28°